Flag Weather past 2 weeks in Vaduz, Liechtenstein

Now
47 °F

Cool.


Feels Like: 44 °F
Forecast: 48 / 67 °F
Wind: 6 mph from Northwest

Location: Vaduz

Current Time: Nov 23, 2014 at 3:58:33 PM

Latest Report: Nov 23, 2014 at 3:00 PM


Visibility: N/A

Pressure: 30.20 "Hg

Humidity: 88%

Dew point: 43 °F

Location of VaduzLocation

Historic Weather in Vaduz — Graph

°F

Vaduz temperature yesterday

Maximum temperature yesterday: 53 °F (at 12:00 AM)
Minimum temperature yesterday: 39 °F (at 9:00 AM)
Average temperature yesterday: 45 °F

Past Weeks' High & Low Weather Summary

 TemperatureHumidityPressure
High69 °F (Nov 11, 12:00 PM)100% (Nov 22, 6:00 AM)30.31 "Hg (Nov 22, 6:00 AM)
Low35 °F (Nov 23, 9:00 AM)32% (Nov 11, 12:00 PM)29.55 "Hg (Nov 15, 8:00 PM)
Average47 °F82%29.91 "Hg
* Reported Nov 8 2:00 PM — Nov 23 2:00 PM, Vaduz, Weather by CustomWeather, © 2014

Note: Actual official high and low records may vary slightly from our data, if they occured in-between our weather recording intervals... More about our weather records

Advertising

Vaduz weather history for previous 24 hours

 ConditionsComfort  
Time TempWeatherWind HumidityBarometerVisibility
2:00 PM
Nov 23
48 °FCool.5 mph83%30.19 "HgN/A
1:00 PM46 °FFog.2 mph84%30.22 "Hg2 mi
12:00 PM43 °FQuite cool.2 mph94%30.25 "HgN/A
11:00 AM39 °FChilly.2 mph96%30.29 "HgN/A
10:00 AM37 °FFog.1 mph100%30.29 "Hg0 mi
9:00 AM35 °FChilly.1 mph100%30.30 "HgN/A
8:00 AM36 °FChilly.1 mph100%30.29 "HgN/A
7:00 AM36 °FFog.2 mph100%30.29 "Hg0 mi
6:00 AM36 °FChilly.1 mph100%30.27 "HgN/A
5:00 AM37 °FChilly.1 mph100%30.26 "HgN/A
4:00 AM37 °FFog.1 mph100%30.26 "Hg3 mi
3:00 AM38 °FChilly.1 mph100%30.27 "HgN/A
2:00 AM38 °FChilly.2 mph100%30.27 "HgN/A
1:00 AM39 °FFog.2 mph100%30.26 "Hg3 mi
12:00 AM39 °FChilly.1 mph100%30.25 "HgN/A
11:00 PM
Nov 22
40 °FQuite cool.2 mph100%30.24 "HgN/A
10:00 PM41 °FFog.2 mph100%30.24 "Hg6 mi
9:00 PM41 °FQuite cool.No wind95%30.23 "HgN/A
8:00 PM40 °FQuite cool.No wind98%30.22 "HgN/A
7:00 PM42 °FQuite cool.1 mph96%30.20 "HgN/A
6:00 PM43 °FQuite cool.No wind96%30.19 "HgN/A
5:00 PM47 °FCool.No wind87%30.19 "HgN/A
4:00 PM50 °FScattered clouds.2 mph80%30.17 "Hg6 mi
3:00 PM51 °FCool.3 mph75%30.16 "HgN/A
Weather by CustomWeather, © 2014

See weather overviewHow to use our weather pages